www.pogodaiklimat.ru

Погода и климат >> Архив погоды >> Россия >> Якутия >> Крест-Хальджай


ПОГОДА в Крест-Хальджае

  • Прогноз погоды в Крест-Хальджае
  • Монитор погоды в Крест-Хальджае
  • Климат города

АРХИВ ПОГОДЫ в Крест-Хальджае

Время (UTC), дата Ветер
(напр.,м/с)
 
Видим.   Явления Облачность Т
(С)
Тd
(С)
f
(%)
Тe
(С)
Тes
(С)
Комфортность P
(гПа)
Po
(гПа)
Тmin
(С)
Tmax
(С)
R
(мм)
R24
(мм)
S
(см)
18 12.07 СЗ 2 50 км {дождь} 10/0
[Ac trans Ci fib]
+16.2 +15.5 96 +16 +16 998.7 985.5
21 12.07 штиль 0 50 км 10/0
[Ac trans Ci fib]
+17.1 +15.9 93 +17 +19 998.6 985.3 +16.8 2
00 13.07 ЮЗ 1 50 км 10/0
[As trans]
+20.2 +15.7 75 +24 +28 комфорт 999.9 986.8
03 13.07 ЮЗ 1 50 км мгла 10/0
[As op]
+20.8 +16.5 76 +25 +28 комфорт 999.7 986.6
06 13.07 З 1 10 км мгла {дождь} 10/0
[As op]
+22.0 +15.3 66 +26 +28 душно 999.6 986.6
09 13.07 штиль 0 10 км мгла {дождь} 10/0
[Ac und]
+21.8 +15.3 67 +25 +26 комфорт 1000.0 986.9 +22.2 0.5
12 13.07 С 1 10 км мгла 10/0
[Ac und]
+20.8 +15.4 71 +25 +25 комфорт 1000.7 987.5
15 13.07 СЗ 1 10 км мгла {дождь} 10/0
[As op]
+17.1 +15.0 87 +18 +18 1000.7 987.4
18 13.07 штиль 0 10 км мгла 10/0
[As op]
+16.2 +14.5 90 +16 +16 1000.8 987.5
21 13.07 СВ 1 10 км слабый дождь 10/0
[As op]
+17.4 +16.1 92 +18 +19 1001.1 987.8 +15.7 0.3
00 14.07 СВ 1 10 км слабый дождь 10/0
[As op]
+17.9 +16.6 92 +19 +21 1001.4 988.0
03 14.07 СЗ 2 10 км в посл. час дождь 10/0
[As op]
+22.3 +18.7 80 +28 +30 душно 1001.4 988.3
06 14.07 СВ 1 10 км в посл. час дождь 10/0
[As op]
+20.7 +16.8 78 +25 +27 комфорт 1002.1 988.9
09 14.07 СВ 1 10 км мгла {дождь} 10/0
[As op]
+19.5 +17.5 88 +23 +23 комфорт 1002.2 988.9 +22.3 1
12 14.07 СВ 1 10 км мгла 10/0
[As op]
+18.8 +16.5 86 +21 +21 комфорт 1003.0 989.7
15 14.07 СВ 1 10 км мгла 10/0
[As op]
+17.6 +16.1 91 +19 +19 1003.6 990.2
18 14.07 СВ 1 10 км в посл. час дождь 10/0
[As op]
+17.6 +16.1 91 +19 +19 1003.6 990.2
21 14.07 штиль 0 10 км в посл. час дождь 10/0
[As op]
+17.6 +16.1 91 +18 +18 1003.8 990.4 +17.6 1
00 15.07 СВ 1 10 км в посл. час дождь 10/0
[As op]
+19.0 +17.2 89 +22 +24 комфорт 1004.2 990.9
03 15.07 СВ 2 50 км 10/0
[Ac trans Ci fib]
+20.7 +16.5 77 +21 +28 комфорт 1004.7 991.5
06 15.07 СВ 2 50 км 10/0
[Ac trans Ci fib]
+23.2 +15.6 62 +27 +33 душно 1005.1 992.0
09 15.07 СВ 2 4000 м в посл. час дождь {снег} 10/0
[As op]
+18.2 +16.1 88 +19 +20 1004.3 993.0 +23.3 3
12 15.07 В 2 50 км гроза, пыльная буря 10/0
[Ac trans Ci fib]
+17.8 +16.1 90 +18 +18 1005.0 991.7
15 15.07 СВ 1 50 км 10/0
[As op]
+16.9 +15.0 89 +18 +18 1005.8 992.4
18 15.07 СВ 1 50 км 10/0
[As op]
+15.3 +13.5 89 +16 +16 1005.7 992.3
21 15.07 В 1 50 км 6/0
[Ac trans Ci fib]
+17.5 +15.1 86 +19 +20 1006.0 992.7 +15.3 13
00 16.07 ЮВ 2 50 км 10/0
[As op]
+19.0 +13.4 70 +21 +22 комфорт 1006.3 993.0
03 16.07 ЮВ 2 1000 м в посл. час ливневой дождь 10/0 600 м
[As op]
+16.3 +14.0 86 +16 +19 1006.4 993.0
06 16.07 Ю 2 50 км {дождь, ливн. осадки} 10/0
[As op]
+18.6 +16.6 88 +20 +22 1006.1 992.8
09 16.07 ЮВ 1 50 км в посл. час дождь 10/0 600 м
[As op]
+18.5 +16.5 88 +20 +21 1005.9 992.6 +18.7 5
12 16.07 ЮЗ 3 50 км {дождь} 10/0
[Ac trans Ci fib]
+16.6 +13.8 84 +16 +16 1006.0 992.6
15 16.07 ЮЗ 3 50 км {дождь} 10/0
[As op]
+15.5 +13.2 86 +15 +15 1005.9 992.5
18 16.07 Ю 1 50 км 10/0
[As op]
+15.1 +14.1 94 +16 +16 1006.0 992.5
21 16.07 ЮВ 1 50 км 10/0
[As op]
+16.1 +14.2 88 +17 +17 1005.8 992.4 +15.5 4
00 17.07 Ю 1 50 км 9/0
[Ac lent Ci]
+18.4 +12.9 70 +20 +23 1006.6 993.3
03 17.07 Ю 2 50 км 8/5 600 м
[Cu hum Ac trans Ci]
+21.6 +12.9 58 +24 +28 комфорт 1006.6 993.4
06 17.07 СВ 1 50 км 9/5 600 м
[Sc Ac cuf Ci ing]
+22.6 +13.3 56 +26 +29 жарко 1004.9 991.8
09 17.07 штиль 0 50 км 10/0
[As op]
+21.0 +14.3 66 +24 +24 комфорт 1004.5 991.3 +22.7
12 17.07 штиль 0 4000 м дождь 10/0 600 м
[As op]
+18.2 +16.4 89 +19 +19 1003.9 990.6
15 17.07 штиль 0 10 км слабый дождь 10/0 600 м
[As op]
+17 +15.3 90 +17 -132 1003.5 990.2
18 17.07 штиль 0 5000 м туман {дождь} 10/0
[As op]
+15.7 +13.9 89 +15 +15 1003.0 989.6
21 17.07 штиль 0 50 км в посл. час туман {дождь} 10/0
[As op]
+15.6 +14.0 90 +15 +16 1002.8 989.4 +14.5 5
00 18.07 ЮЗ 1 50 км 10/0
[As op]
+16.3 +14.6 90 +17 +19 1001.6 988.2
03 18.07 ЮЗ 2 50 км 10/0
[As op]
+17.9 +13.3 74 +18 +21 1002.5 989.1
06 18.07 ЮЗ 4 50 км 5/0
[Ac trans Ci fib]
+19.1 +6.7 44 +20 +24 1002.6 989.3
09 18.07 З 4 50 км 6/0
[Ac trans Ci fib]
+19.1 +4.6 38 +19 +21 1004.4 991.1 +19.1
12 18.07 С 1 50 км 8/5 600 м
[Cu hum Ac trans Ci]
+13.3 +2.7 49 +14 +14 1007.9 994.3
15 18.07 штиль 0 50 км 8/5 600 м
[Cu hum Ac trans Ci]
+9.4 +3.1 65 +9 +9 1010.1 996.2
18 18.07 С 1 50 км ясно +6.2 +3.9 85 +5 +5 1011.9 997.9
21 18.07 штиль 0 50 км ясно +8.2 +1.6 63 +8 +11 1013.1 999.2 +6.2
00 19.07 ЮЗ 1 50 км ясно +13.5 +1.1 43 +14 +24 1012.8 999.1
03 19.07 З 2 50 км ясно +17.2 +2.2 36 +18 +30 опасность
простуды
1012.5 999.1
06 19.07 ЮЗ 2 50 км ясно +19.8 +3.0 33 +21 +29 комфорт 1012.3 998.9
09 19.07 З 1 50 км ясно +20.7 +1.2 27 +22 +25 комфорт 1012.2 998.9 +20.8
12 19.07 СВ 1 50 км ясно +17.7 +3.0 37 +19 +19 1012.6 999.1

 

Местоположение метеостанции Крест-Хальджай (Якутия, Россия): широта 62.82 долгота 134.40 высота над уровнем моря 115 м.

В архиве по умолчанию представлена погода в Крест-Хальджае за последнюю неделю. Архивные данные за месяц целиком и за предыдущие месяцы, начиная с января 2011 года, Вы можете получить, выбрав интересующий диапазон дат из раскрывающегося списка и нажав кнопку "Ввод!".


*Определитесь, кто Вы:
робот инопланетянин человек

Внимание! Время в таблицах - всемирное. Для получения местного времени необходимо прибавить поправку, которая в Крест-Хальджае равна 9 ч.

Смотрите также архив погоды в соседних городах и на ближайших метеорологических станциях:

Погода в Ытык-Кюёле (Якутия, Россия) (68 км)
Погода в Охотском Перевозе (Якутия, Россия) (120 км)
Погода в Теплом Ключе (Якутия, Россия) (122 км)
Погода в Чурапче (Якутия, Россия) (128 км)
Погода в Верхоянском Перевозе (Якутия, Россия) (133 км)
Погода в Томпо (Якутия, Россия) (144 км)
Погода в Сеген-Кюели (Якутия, Россия) (243 км)
Погода в Намцах (Якутия, Россия) (244 км)
Погода в Амге (Якутия, Россия) (251 км)
Погода в Батамае (Якутия, Россия) (263 км)

Пояснения к столбцам:

Ветер - указаны скорость ветра в м/с - средняя за 10 мин, порывы в срок и между сроками (в фигурных скобках) и направление, откуда дует ветер: С - северный, СВ - северо-восточный, В - восточный, ЮВ - юго-восточный, Ю - южный, ЮЗ - юго-западный, З - западный, СЗ - северо-западный.
Видимость - горизонтальная дальность видимости в метрах или километрах. При видимости от 1 до 10 км при отсутствии осадков обычно наблюдается дымка, при ухудшении видимости до 1 км и менее - туман. В сухую погоду видимость может ухудшаться дымом, пылью или мглою.
Явления - указаны атмосферные явления, наблюдавшиеся в срок или в последний час перед сроком; фигурными скобками обозначены явления, наблюдавшиеся между сроками (за 1-3 часа до срока); квадратными скобками обозначены град или гололедные отложения с указанием их диаметра в мм.
Облачность - указаны через наклонную черту общая и нижняя облачность в баллах и высота нижней границы облаков в метрах; квадратными скобками обозначены формы облаков: Ci - перистые, Cs - перисто-слоистые, Cc - перисто-кучевые, Ac - высококучевые, As - высокослоистые, Sc - слоисто-кучевые, Ns - слоисто-дождевые, Cu - кучевые, Cb - кучево-дождевые. Подробнее классификацию облаков см. в Атласе облаков (PDF).
T - Температура воздуха - температура, измеренная на высоте 2 м над землей.
Td - Температура точки росы - температура, при понижении до которой содержащийся в воздухе водяной пар достигнет насыщения.
f - Относительная влажность воздуха - влажноcть воздуха, измеренная на высоте 2 м над землей.
Te - Эффективная температура - температура, которую ощущает одетый по сезону человек в тени. Характеристика душности погоды. При расчете учитывается влияние влажности воздуха и скорости ветра на теплоощущения человека.
Tes - Эффективная температура на солнце - температура, которую ощущает человек, с поправкой на солнечный нагрев. Характеристика знойности погоды. Зависит от высоты солнца над горизонтом, облачности и скорости ветра. Ночью, в пасмурную погоду, а также при ветре 12 м/с и более поправка равна нулю.
P - Атмосферное давление - приведенное к уровню моря атмосферное давление.
Po - Атмосферное давление - измеренное на уровне метеостанции атмосферное давление.
Tmin - Минимальная температура - минимум температуры воздуха на высоте 2 м над землей.
Tmax - Максимальная температура - максимум температуры воздуха на высоте 2 м над землей.
R - Количество осадков - Количество выпавших осадков за период времени, мм. При наведении курсора мыши на число - период времени, за который выпало указанное количество осадков.
R24 - Количество осадков - Количество выпавших осадков за 24 часа, мм.
S - Снежный покров - Высота снежного покрова, см. При наведении курсора мыши на число - состояние снежного покрова и степень покрытия местности в баллах.